• In United Kingdom
  • List of Countries
  • For 7 days
  • Water Temperature
  • Satellite Maps
  • Weather Map
  • Weather Widgets
  • user-avatar
    Login

    Hourly Weather Linz

    Today, 19 January, Friday

    Time Temperature Precipitation Wind Pressure Humidity
    00:00 +4°C° 1.5 mm 2 mps 724 mmHg 93%
    01:00 +3°C° 1.5 mm 2 mps 725 mmHg 94%
    02:00 +3°C° 1.4 mm 2 mps 725 mmHg 94%
    03:00 +3°C° 1.4 mm 2 mps 725 mmHg 95%
    04:00 +3°C° 1.4 mm 2 mps 724 mmHg 95%
    05:00 +3°C° 1.5 mm 2 mps 725 mmHg 94%
    06:00 +2°C° 1.5 mm 3 mps 725 mmHg 93%
    07:00 +3°C° 1.5 mm 3 mps 725 mmHg 92%
    08:00 +3°C° 0.7 mm 4 mps 726 mmHg 91%
    09:00 +3°C° 0.7 mm 4 mps 726 mmHg 90%
    10:00 +3°C° 0.7 mm 4 mps 727 mmHg 90%
    11:00 +2°C° 0.3 mm 5 mps 727 mmHg 88%
    12:00 +2°C° 0.3 mm 5 mps 727 mmHg 85%
    13:00 +2°C° 0.3 mm 5 mps 728 mmHg 83%
    14:00 +1°C° 0.1 mm 5 mps 728 mmHg 83%
    15:00 +1°C° 0.1 mm 5 mps 728 mmHg 83%
    16:00 +1°C° 0.1 mm 4 mps 729 mmHg 83%
    17:00 0°C° 0.1 mm 4 mps 729 mmHg 85%
    18:00 0°C° 0.1 mm 3 mps 729 mmHg 87%
    19:00 -1°C° 0.1 mm 3 mps 730 mmHg 89%
    20:00 -1°C° 0 mm 3 mps 730 mmHg 90%
    21:00 -1°C° 0 mm 2 mps 730 mmHg 91%
    22:00 -2°C° 0 mm 2 mps 731 mmHg 92%
    23:00 -2°C° 0 mm 2 mps 731 mmHg 92%

    Tomorrow, 20 January, Saturday

    Time Temperature Precipitation Wind Pressure Humidity
    00:00 -2°C° 0 mm 2 mps 731 mmHg 92%
    01:00 0°C° 0 mm 1 mps 731 mmHg 92%
    02:00 0°C° 0.1 mm 1 mps 731 mmHg 91%
    03:00 -1°C° 0.1 mm 2 mps 731 mmHg 91%
    04:00 -1°C° 0.1 mm 2 mps 730 mmHg 90%
    05:00 -1°C° 0.6 mm 2 mps 730 mmHg 91%
    06:00 -1°C° 0.6 mm 3 mps 730 mmHg 92%
    07:00 -1°C° 0.6 mm 3 mps 730 mmHg 92%
    08:00 -1°C° 0.3 mm 3 mps 730 mmHg 91%
    09:00 0°C° 0.3 mm 3 mps 729 mmHg 90%
    10:00 0°C° 0.3 mm 3 mps 729 mmHg 89%
    11:00 +1°C° 0.5 mm 3 mps 729 mmHg 89%
    12:00 +1°C° 0.5 mm 3 mps 728 mmHg 89%
    13:00 +3°C° 0.5 mm 2 mps 727 mmHg 89%
    14:00 +2°C° 0.2 mm 2 mps 727 mmHg 90%
    15:00 +2°C° 0.2 mm 2 mps 726 mmHg 91%
    16:00 +3°C° 0.2 mm 1 mps 726 mmHg 91%
    17:00 +3°C° 0.1 mm 1 mps 725 mmHg 91%
    18:00 +2°C° 0.1 mm 1 mps 725 mmHg 91%
    19:00 +2°C° 0.1 mm 1 mps 725 mmHg 91%
    20:00 +1°C° 0.1 mm 1 mps 724 mmHg 91%
    21:00 +1°C° 0.1 mm 1 mps 724 mmHg 91%
    22:00 +1°C° 0.1 mm 1 mps 724 mmHg 91%
    23:00 +1°C° 0.5 mm 1 mps 724 mmHg 92%

    Day after tomorrow, 21 January, Sunday

    Time Temperature Precipitation Wind Pressure Humidity
    00:00 +1°C° 0.5 mm 1 mps 724 mmHg 93%
    01:00 +1°C° 0.5 mm 1 mps 724 mmHg 94%
    02:00 -1°C° 1 mm 2 mps 725 mmHg 95%
    03:00 +1°C° 1 mm 2 mps 725 mmHg 95%
    04:00 0°C° 1 mm 3 mps 726 mmHg 95%
    05:00 -2°C° 0.6 mm 4 mps 727 mmHg 94%
    06:00 -2°C° 0.6 mm 4 mps 728 mmHg 92%
    07:00 -2°C° 0.6 mm 5 mps 729 mmHg 91%
    08:00 -2°C° 0.2 mm 4 mps 730 mmHg 91%
    09:00 -1°C° 0.2 mm 3 mps 731 mmHg 91%
    10:00 -1°C° 0.2 mm 3 mps 732 mmHg 92%
    11:00 -1°C° 0.1 mm 3 mps 732 mmHg 92%
    12:00 0°C° 0.1 mm 3 mps 732 mmHg 92%
    13:00 +1°C° 0.1 mm 2 mps 732 mmHg 92%
    14:00 +1°C° 0.1 mm 2 mps 733 mmHg 92%
    15:00 +1°C° 0.1 mm 2 mps 733 mmHg 92%
    16:00 +1°C° 0.1 mm 2 mps 733 mmHg 92%
    17:00 -2°C° 0 mm 2 mps 733 mmHg 92%
    18:00 -1°C° 0 mm 1 mps 734 mmHg 93%
    19:00 -2°C° 0 mm 1 mps 734 mmHg 93%
    20:00 -2°C° 0 mm 1 mps 734 mmHg 93%
    21:00 -2°C° 0 mm 1 mps 734 mmHg 92%
    22:00 -2°C° 0 mm 1 mps 734 mmHg 91%
    23:00 -2°C° 0 mm 1 mps 733 mmHg 91%

    22 January, Monday

    Time Temperature Precipitation Wind Pressure Humidity
    00:00 -2°C° 0 mm 1 mps 733 mmHg 91%
    01:00 -2°C° 0 mm 1 mps 733 mmHg 91%
    02:00 -2°C° 0.2 mm 1 mps 733 mmHg 91%
    03:00 -1°C° 0.2 mm 1 mps 732 mmHg 91%
    04:00 -1°C° 0.2 mm 1 mps 732 mmHg 91%
    05:00 -1°C° 0.7 mm 1 mps 732 mmHg 92%
    06:00 0°C° 0.7 mm 1 mps 732 mmHg 93%
    07:00 0°C° 0.7 mm 1 mps 732 mmHg 93%
    08:00 +1°C° 0.8 mm 1 mps 732 mmHg 94%
    09:00 +1°C° 0.8 mm 1 mps 732 mmHg 95%
    10:00 +2°C° 0.8 mm 1 mps 732 mmHg 96%
    11:00 +2°C° 0.5 mm 1 mps 731 mmHg 96%
    12:00 +3°C° 0.5 mm 1 mps 731 mmHg 97%
    13:00 +4°C° 0.5 mm 1 mps 730 mmHg 98%
    14:00 +4°C° 1 mm 1 mps 730 mmHg 98%
    15:00 +4°C° 1 mm 2 mps 730 mmHg 99%
    16:00 +4°C° 1 mm 2 mps 730 mmHg 99%
    17:00 +5°C° 2.7 mm 2 mps 730 mmHg 99%
    18:00 +5°C° 2.7 mm 2 mps 730 mmHg 99%
    19:00 +5°C° 2.7 mm 2 mps 730 mmHg 99%
    20:00 +4°C° 1.4 mm 3 mps 730 mmHg 99%
    21:00 +5°C° 1.4 mm 3 mps 730 mmHg 99%
    22:00 +5°C° 1.4 mm 4 mps 730 mmHg 99%
    23:00 +5°C° 0.8 mm 4 mps 730 mmHg 98%

    23 January, Tuesday

    Time Temperature Precipitation Wind Pressure Humidity
    00:00 +5°C° 0.8 mm 4 mps 730 mmHg 98%
    01:00 +5°C° 0.8 mm 5 mps 730 mmHg 98%
    02:00 +5°C° 0.5 mm 5 mps 731 mmHg 97%
    03:00 +4°C° 0.5 mm 6 mps 731 mmHg 97%
    04:00 +4°C° 0.5 mm 6 mps 732 mmHg 96%
    05:00 +5°C° 0.1 mm 5 mps 733 mmHg 96%
    06:00 +4°C° 0.1 mm 4 mps 734 mmHg 96%
    07:00 +4°C° 0.1 mm 4 mps 735 mmHg 95%
    08:00 +4°C° 0.1 mm 3 mps 736 mmHg 96%
    09:00 +4°C° 0.1 mm 3 mps 736 mmHg 97%
    10:00 +5°C° 0.1 mm 2 mps 737 mmHg 98%
    11:00 +5°C° 0.4 mm 2 mps 737 mmHg 97%
    12:00 +4°C° 0.4 mm 3 mps 737 mmHg 97%
    13:00 +5°C° 0.4 mm 3 mps 737 mmHg 97%
    14:00 +5°C° 0.2 mm 3 mps 738 mmHg 97%
    15:00 +5°C° 0.2 mm 3 mps 738 mmHg 96%
    16:00 +5°C° 0.2 mm 3 mps 738 mmHg 96%
    17:00 +5°C° 0.1 mm 3 mps 739 mmHg 95%
    18:00 +5°C° 0.1 mm 3 mps 739 mmHg 95%
    19:00 +5°C° 0.1 mm 4 mps 740 mmHg 94%
    20:00 +5°C° 0.1 mm 4 mps 740 mmHg 94%
    21:00 +5°C° 0.1 mm 4 mps 740 mmHg 93%
    22:00 +5°C° 0.1 mm 4 mps 741 mmHg 93%
    23:00 +5°C° 0 mm 3 mps 741 mmHg 93%

    24 January, Wednesday

    Time Temperature Precipitation Wind Pressure Humidity
    00:00 +4°C° 0 mm 3 mps 741 mmHg 93%
    01:00 +4°C° 0 mm 3 mps 741 mmHg 93%
    02:00 +4°C° 0 mm 3 mps 741 mmHg 93%
    03:00 +4°C° 0 mm 2 mps 742 mmHg 93%
    04:00 +4°C° 0 mm 2 mps 742 mmHg 94%
    05:00 +5°C° 0 mm 1 mps 742 mmHg 93%
    06:00 +5°C° 0 mm 1 mps 742 mmHg 93%
    07:00 +4°C° 0 mm 1 mps 742 mmHg 93%
    08:00 +5°C° 0 mm 1 mps 742 mmHg 93%
    09:00 +6°C° 0 mm 1 mps 742 mmHg 92%
    10:00 +6°C° 0 mm 1 mps 742 mmHg 92%
    11:00 +7°C° 0 mm 1 mps 742 mmHg 92%
    12:00 +8°C° 0 mm 1 mps 742 mmHg 91%
    13:00 +8°C° 0 mm 1 mps 741 mmHg 90%
    14:00 +8°C° 0 mm 1 mps 741 mmHg 92%
    15:00 +7°C° 0 mm 1 mps 741 mmHg 94%
    16:00 +7°C° 0 mm 1 mps 741 mmHg 96%
    17:00 +6°C° 0 mm 1 mps 741 mmHg 94%
    18:00 +6°C° 0 mm 1 mps 741 mmHg 92%
    19:00 +5°C° 0 mm 1 mps 741 mmHg 90%
    20:00 +5°C° 0 mm 1 mps 741 mmHg 90%
    21:00 +5°C° 0 mm 1 mps 741 mmHg 89%
    22:00 +5°C° 0 mm 1 mps 741 mmHg 88%
    23:00 +4°C° 0 mm 1 mps 741 mmHg 88%
    Show more